Location: Unspecified
(30.2330°N, 120.0460°E)
Time: 07:15:36
(UTC+00:00)

Daily predictions for brighter satellites

Satellite Brightness Start Highest point End
(mag) Time Altitude Azimuth Time Altitude Azimuth Time Altitude Azimuth
Cosmos 2219 Rocket 4.0 12:04:05 10° NNW 12:06:06 23° NNW 12:06:06 23° NNW
CZ-3 R/B 4.3 17:22:37 10° W 18:30:53 85° S 18:44:24 10° E
Centaur D-1AR AC-48 4.1 19:14:39 26° SE 19:14:39 26° SE 19:16:53 10° ESE
ADEOS II 4.4 19:24:05 10° NNE 19:24:58 15° NNE 19:24:58 15° NNE
NOSS 3-1 (C) 3.5 19:50:39 59° SSE 19:51:21 65° ESE 19:57:20 10° NE
USA 229 DEB 3.9 19:53:10 52° NNW 19:53:10 52° NNW 19:58:52 10° NNE
USA 229 3.9 19:53:13 53° NNW 19:53:13 53° NNW 19:58:57 10° NNE
NOSS 3-1 (A) 4.1 19:53:40 25° S 19:56:38 47° ESE 20:02:22 10° NE
Cosmos 2184 Rocket 4.3 19:51:06 10° N 19:59:08 48° SSW 20:03:28 10° S
USA 267 3.1 20:01:33 10° SE 20:08:05 78° SW 20:10:24 44° NW
Okean O Rocket 2.8 20:05:30 10° N 20:07:56 33° N 20:07:56 33° N
Cosmos 44 Rocket 3.8 20:10:21 29° N 20:12:42 58° ENE 20:17:34 10° SE
Meteor 2-5 Rocket 4.3 20:11:28 10° S 20:17:19 63° E 20:23:06 10° NNE
Cosmos 1833 4.1 20:13:47 14° NNW 20:18:38 82° ENE 20:24:13 10° SSE
Cosmos 1758 Rocket 3.7 20:19:58 59° NNW 20:19:58 59° NNW 20:23:45 10° N
OAO 1 4.4 20:19:00 60° WNW 20:20:02 84° SSW 20:25:34 10° ESE
Delta 128 4.3 20:28:09 40° SW 20:28:48 43° SSW 20:33:11 10° SE
Cosmos-2242 4.2 20:25:22 10° N 20:29:27 43° E 20:33:34 10° SSE
Nadezhda 1 Rocket 4.4 20:29:28 38° W 20:29:33 38° W 20:35:26 10° NNW
SWIFT 4.1 20:29:37 20° SSW 20:29:55 20° S 20:33:04 10° SE
PAYLOAD B 4.2 20:25:53 10° N 20:31:14 54° WNW 20:35:21 17° SW
CZ-4C R/B 3.0 20:24:04 10° NNW 20:31:38 89° ENE 20:39:47 10° SSE
FUSE 4.4 20:30:21 37° SW 20:31:57 49° S 20:37:08 10° ESE
Meteor PRIRODA 3.6 20:32:21 10° N 20:36:04 61° WNW 20:36:19 59° W
Cosmos 1656 Rocket 4.2 20:37:51 35° WNW 20:38:23 35° WNW 20:43:34 10° N
APEX 3.9 20:36:24 11° NNW 20:40:11 65° ENE 20:45:11 10° SSE
CZ-4B DEB 4.4 20:35:08 10° N 20:40:21 46° WNW 20:45:36 10° SW
Tiangong 2 3.4 20:41:48 15° N 20:42:55 17° NNE 20:45:09 10° ENE
USA 81 4.2 20:38:46 10° S 20:44:01 78° E 20:49:17 10° N
Meteor 1-16 Rocket 4.4 20:41:22 10° N 20:47:05 76° E 20:52:55 10° SSE
Cosmos 1470 3.3 20:48:17 35° WSW 20:48:17 35° WSW 20:51:21 10° SSW
CZ-4B R/B 3.7 20:52:00 10° N 20:56:56 35° WNW 21:01:56 10° SW
Milstar 3 3.0 20:55:19 22° W 20:59:50 68° S 21:08:34 10° ESE
Meteor 1-31 Rocket 3.3 20:56:47 10° N 21:00:14 33° WNW 21:03:39 10° SW
OAO 2 Rocket 3.7 21:00:59 20° WNW 21:04:21 54° N 21:09:12 10° E
Cosmos 2366 rocket 4.5 21:00:13 10° N 21:06:19 65° E 21:12:26 10° SSE
Molniya-1 2.3 21:06:53 49° WNW 21:07:14 65° WSW 21:09:21 10° SSE
Shenzhou-11 Module 2.7 21:07:47 17° NW 21:09:56 49° NNE 21:12:54 10° ESE
Cosmos 1242 Rocket 4.2 21:15:30 15° WSW 21:15:30 15° WSW 21:17:06 10° SW
SJ 16-02 1.7 21:10:57 10° SW 21:15:06 41° WNW 21:19:16 10° N
Cosmos 2084 Rocket 4.2 21:12:34 10° SSW 21:16:55 57° ESE 21:21:03 10° NE
MTI 3.8 21:15:30 10° S 21:18:40 56° W 21:21:53 10° NNW
Cosmos 2278 4.3 21:14:37 10° S 21:20:10 62° ESE 21:25:44 10° NNE
SL-8 Rocket 4.0 21:14:11 10° NNW 21:20:27 68° W 21:26:42 10° S
IDEFIX/ARIANE 42P 2.8 21:17:21 10° NNE 21:22:36 75° ESE 21:27:46 10° S
Meteor 1-24 Rocket 4.0 21:18:20 10° SSW 21:24:10 52° W 21:30:00 10° N
SKYMED 2 3.6 21:20:34 10° SSE 21:24:53 86° E 21:29:15 10° N
EO 1 Del DPAF 3.3 21:24:21 10° S 21:28:06 57° W 21:31:52 10° NNW
ATLAS 2AS CENTAUR R/B 4.2 21:28:15 10° S 21:35:20 48° ESE 21:42:55 10° NE
GPS 2-04 Rocket1 2.5 21:31:48 10° WNW 21:35:35 85° NNE 21:39:10 10° ESE
Cosmos 864 Rocket 4.5 21:31:10 10° N 21:37:20 71° W 21:43:25 10° S
PAYLOAD A 3.9 21:36:17 10° N 21:40:56 60° WNW 21:45:41 10° SSW
Cosmos 2227 Rocket 3.5 21:35:52 10° N 21:41:17 44° ENE 21:46:39 10° SE
NOSS 2-3 (E) 3.7 21:38:27 10° SSW 21:42:58 83° WNW 21:47:58 10° NNE
Cosmos 2218 Rocket 4.2 21:38:03 10° NNW 21:44:03 51° W 21:50:07 10° SSW
Cosmos 2344 3.9 21:38:04 10° SSW 21:45:51 75° ESE 21:53:45 10° NNE
